Domov               UVHVVR             MKGP            O straneh              
ZDRAVSTVENO VARSTVO RASTLIN
  MREŽA AGROMET. POSTAJ
 ► PROGNOSTIČNA OBVESTILA
AGROMETEOROLOŠKI PODATKI -
ARSO
OBVLADOVANJE TVEGANJ ZARADI
NEUGODNIH VREMENSKIH RAZMER
  ► NARAVNE NESREČE
  ► SUŠA/MOČA
  ► NAMAKANJE
  ► ŽLED (gozdarstvo)
KARTOGRAFSKI PRIKAZI
SPLETNE POVEZAVE
PROJEKTI IN PUBLIKACIJE

AGROMETEOROLOŠKA MREŽA: VREMENSKE POSTAJE IN FENOLOŠKA OPAZOVANJA

Pregled podatkov za lokacijo Vnajnarje, meteorološka postaja 27470

Pregled senzorjev na lokaciji

ID Ime Zadnja
vrednost
Datum
zadnje
spremembe
Tip
senzorja
3759 Omočenost lista (U) 0 U 23.7.2018 05:00 A730WET
3756 Padavine (mm) 0 mm 23.7.2018 05:00 Generic 0.2 mm
3757 Relativna vlaga 2 m (% RH) 83,49 % RH 23.7.2018 05:00 Generic 0 - 100 %
3758 Temperatura 2 m (°C) 16,58 °C 23.7.2018 05:00 Generic -40 - +60 °C

Pregled podatkov zadnjih 24 ur

Zap.
št.
Datum in čas Vnajnarje
Omočenost
lista
Padavine Relativna
vlaga
2
m
Temperatura
2
m
1 23.7.2018 05:30
2 23.7.2018 05:00
3 23.7.2018 04:30
4 23.7.2018 04:00 0 0 83,5 16,6
5 23.7.2018 03:30 0 0 84,2 16,8
6 23.7.2018 03:00 0 0 82,3 16,8
7 23.7.2018 02:30 1 0 87,4 17
8 23.7.2018 02:00 2 0 88,1 16,8
9 23.7.2018 01:30 3 0 94,7 16,3
10 23.7.2018 01:00 3 0 96,8 16,3
11 23.7.2018 00:30 1 0 95 16,4
12 23.7.2018 00:00 0 0 89,8 16,7
13 22.7.2018 23:30 1 0 92,5 16,7
14 22.7.2018 23:00 0 0 83,8 17,4
15 22.7.2018 22:30 0 0 79,1 17,9
16 22.7.2018 22:00 0 0 79,9 17,7
17 22.7.2018 21:30 1 0 85,8 17,4
18 22.7.2018 21:00 2 0 89,2 17,5
19 22.7.2018 20:30 6 0 89,7 16,5
20 22.7.2018 20:00 4 0 99,9 15,9
21 22.7.2018 19:30 3 0 99,9 16
22 22.7.2018 19:00 2 0 99,3 16,2
23 22.7.2018 18:30 2 0 88,7 17
24 22.7.2018 18:00 6 0,6 96,3 16,3
25 22.7.2018 17:30 7 0,8 87 17
26 22.7.2018 17:00 9 0,6 91,8 17,8
27 22.7.2018 16:30 9 1 94,4 17,8
28 22.7.2018 16:00 3 0 92,6 18,9
29 22.7.2018 15:30 0 0 86,6 19,7
30 22.7.2018 15:00 0 0 85,3 21,6
31 22.7.2018 14:30 0 0 80,1 21,6
32 22.7.2018 14:00 0 0 73,4 21,7
33 22.7.2018 13:30 0 0 70,3 21,6
34 22.7.2018 13:00 0 0 74,7 21,4
35 22.7.2018 12:30 0 0 84,6 20,9
36 22.7.2018 12:00 0 0 80,5 22,5
37 22.7.2018 11:30 0 0 78,7 21,2
38 22.7.2018 11:00 0 0 89,7 20
39 22.7.2018 10:30 0 0 94,5 19,2
40 22.7.2018 10:00 0 0 94,2 18,8
41 22.7.2018 09:30 0 0 95,3 19
42 22.7.2018 09:00 0 0 93,4 18,9
43 22.7.2018 08:30 0 0 91,2 18,6
44 22.7.2018 08:00 0 0 91,2 18,7
45 22.7.2018 07:30 0 0 93 17,8
46 22.7.2018 07:00 0 0 96,4 16,7
47 22.7.2018 06:30 2 0 99,9 15,3
48 22.7.2018 06:00 10 0 99,9 15,3
© 2011 Ministrstvo za kmetijstvo, gozdarstvo in prehrano. Vse pravice pridržane.